Regional Weather Roundup
Issued by NWS Goodland, KS

Home | Current Version | Previous Version | Graphics & Text | Print | Product List | Glossary On
Versions: 1 2 3 4 5 6 7 8 9 10 11 12 13 14 15 16 17 18 19 20 21 22 23 24 25 26 27 28 29 30 31 32 33 34 35 36 37 38 39 40 41 42 43 44 45 46 47 48 49 50
000
ASUS43 KGLD 030608
RWRGLD

GOODLAND FORECAST AREA HOURLY WEATHER ROUNDUP
NATIONAL WEATHER SERVICE GOODLAND KS
1200 AM MDT TUE MAY 03 2016

...OFFICIAL OBSERVATIONS...

CITY           SKY/WX    TMP DP  RH WIND       PRES   REMARKS
GOODLAND KS    CLOUDY    46  37  71 NW7       30.05F
HILL CITY KS   MOCLDY    50  39  66 CALM      30.04F
IMPERIAL NEB   LGT RAIN  47  42  83 N15       30.09R
MCCOOK NEB     CLOUDY    48  39  71 W5        30.01F
AKRON CO       CLOUDY    44  34  67 NW8       30.07F
BURLINGTON CO  CLOUDY    40  32  73 CALM      30.09S
LIMON CO       CLOUDY    33  30  88 NW7       30.12F
$$

...UNOFFICIAL OBSERVATIONS...

CITY           SKY/WX    TMP DP  RH WIND       PRES   REMARKS
COLBY KS       CLOUDY    46  43  87 SW6       30.05F
LENORA KS        N/A     46  32  58 MISG        N/A
NORTON KS      CLEAR     48  36  61 SE6       30.02S
SHARON SPRINGS   N/A     45  38  77 SW7         N/A
KIT CARSON CO    N/A     39  34  83 MISG        N/A
YUMA CO          N/A     46  36  67 CALM        N/A
$$




USA.gov is the U.S. government's official web portal to all federal, state and local government web resources and services.